Location: Newark
(33.6333°S, 78.8500°W)
Time: 16:03:01
(UTC+00:00)

Tiros 1 - All Passes

Search period start: 18 October 2019 00:00
Search period end: 28 October 2019 00:00
Orbit: 630 x 664 km, 48.4° (Epoch: 17 October)

Date Brightness Start Highest point End Pass type
(mag) Time Alt. Az. Time Alt. Az. Time Alt. Az.
18 Oct - 00:18:44 10° SSW 00:22:13 20° SSE 00:25:42 10° ESE visible
18 Oct - 02:00:19 10° SW 02:04:59 77° SE 02:09:41 10° NE visible
18 Oct - 03:43:57 10° W 03:46:44 16° NW 03:49:30 10° NNW visible
18 Oct - 17:52:03 10° NNW 17:56:18 35° NE 18:00:33 10° ESE daylight
18 Oct - 19:34:02 10° W 19:38:26 39° SSW 19:42:51 10° SE daylight
18 Oct - 21:18:55 10° SW 21:21:38 15° SSW 21:24:21 10° SSE daylight
18 Oct - 23:02:54 10° SSW 23:05:25 14° S 23:07:55 10° SE daylight
19 Oct - 00:44:28 10° SW 00:48:44 34° SSE 00:52:59 10° E visible
19 Oct - 02:26:33 10° WSW 02:30:59 43° NW 02:35:25 10° NNE visible
19 Oct - 16:38:43 10° NNE 16:40:36 12° NE 16:42:28 10° ENE daylight
19 Oct - 18:17:32 10° NW 18:22:13 87° NE 18:26:56 10° SE daylight
19 Oct - 20:01:11 10° WSW 20:04:53 23° SSW 20:08:35 10° SSE daylight
19 Oct - 21:46:20 10° SSW 21:48:28 13° S 21:50:36 10° SSE daylight
19 Oct - 23:28:46 10° SSW 23:32:09 19° SSE 23:35:32 10° ESE daylight
20 Oct - 01:10:19 10° SW 01:14:58 71° SE 01:19:38 10° ENE visible
20 Oct - 02:53:43 10° W 02:56:45 17° NW 02:59:48 10° N visible
20 Oct - 17:02:09 10° NNW 17:06:18 32° NE 17:10:28 10° ESE daylight
20 Oct - 18:43:56 10° WNW 18:48:24 42° SSW 18:52:52 10° SE daylight
20 Oct - 20:28:45 10° SW 20:31:33 15° SSW 20:34:21 10° SSE daylight
20 Oct - 22:12:53 10° SSW 22:15:19 14° S 22:17:45 10° SE daylight
20 Oct - 23:54:29 10° SW 23:58:41 32° SSE 00:02:52 10° E visible
21 Oct - 01:36:30 10° WSW 01:40:59 48° NW 01:45:28 10° NNE visible
21 Oct - 15:49:21 10° NE 15:50:37 11° NE 15:51:52 10° ENE daylight
21 Oct - 17:27:31 10° NW 17:32:13 80° NE 17:36:55 10° SE daylight
21 Oct - 19:11:01 10° WSW 19:14:49 24° SSW 19:18:36 10° SSE daylight
21 Oct - 20:56:12 10° SSW 20:58:22 13° S 21:00:32 10° SSE daylight
21 Oct - 22:38:47 10° SSW 22:42:04 19° SSE 22:45:22 10° ESE daylight
22 Oct - 00:20:19 10° SW 00:24:57 65° SE 00:29:35 10° ENE visible
22 Oct - 02:03:31 10° W 02:06:47 19° NW 02:10:03 10° N visible
22 Oct - 16:12:15 10° NNW 16:16:19 29° NE 16:20:23 10° ESE daylight
22 Oct - 17:53:50 10° WNW 17:58:21 46° SSW 18:02:53 10° SE daylight
22 Oct - 19:38:33 10° SW 19:41:28 16° SSW 19:44:22 10° SSE daylight
22 Oct - 21:22:51 10° SSW 21:25:14 14° S 21:27:36 10° SE daylight
22 Oct - 23:04:30 10° SW 23:08:38 30° SSE 23:12:44 10° E daylight
23 Oct - 00:46:27 10° WSW 00:50:59 53° NW 00:55:31 10° NNE visible
23 Oct - 16:37:30 10° NW 16:42:12 73° NE 16:46:54 10° SE daylight
23 Oct - 18:20:51 10° W 18:24:45 25° SSW 18:28:39 10° SSE daylight
23 Oct - 20:06:03 10° SSW 20:08:16 13° S 20:10:29 10° SSE daylight
23 Oct - 21:48:48 10° SSW 21:51:59 18° SSE 21:55:11 10° ESE daylight
23 Oct - 23:30:19 10° SW 23:34:56 59° SE 23:39:32 10° ENE daylight
24 Oct - 01:13:20 10° W 01:16:48 21° NW 01:20:16 10° N visible
24 Oct - 15:22:23 10° N 15:26:19 26° NE 15:30:15 10° ESE daylight
24 Oct - 17:03:44 10° WNW 17:08:19 50° SW 17:12:54 10° SE daylight
24 Oct - 18:48:21 10° SW 18:51:23 17° SSW 18:54:24 10° SSE daylight
24 Oct - 20:32:49 10° SSW 20:35:08 13° S 20:37:27 10° SE daylight
24 Oct - 22:14:32 10° SSW 22:18:35 28° SSE 22:22:36 10° E daylight
24 Oct - 23:56:25 10° WSW 00:01:00 58° NW 00:05:32 10° NE visible
25 Oct - 15:47:30 10° NW 15:52:11 67° NE 15:56:52 10° ESE daylight
25 Oct - 17:30:41 10° W 17:34:41 26° SSW 17:38:40 10° SSE daylight
25 Oct - 19:15:54 10° SW 19:18:10 13° S 19:20:27 10° SSE daylight
25 Oct - 20:58:49 10° SSW 21:01:55 17° SSE 21:05:01 10° ESE daylight
25 Oct - 22:40:19 10° SW 22:44:55 55° SE 22:49:28 10° ENE daylight
26 Oct - 00:23:10 10° W 00:26:49 23° NW 00:30:28 10° N visible
26 Oct - 14:32:32 10° N 14:36:20 24° NE 14:40:08 10° ESE daylight
26 Oct - 16:13:38 10° WNW 16:18:17 54° SW 16:22:55 10° SE daylight
26 Oct - 17:58:09 10° WSW 18:01:17 17° SSW 18:04:25 10° SSE daylight
26 Oct - 19:42:45 10° SSW 19:45:02 13° S 19:47:18 10° SE daylight
26 Oct - 21:24:33 10° SSW 21:28:31 27° SSE 21:32:28 10° E daylight
26 Oct - 23:06:22 10° WSW 23:10:59 64° NW 23:15:34 10° NE daylight
27 Oct - 14:57:30 10° NW 15:02:11 61° NE 15:06:51 10° ESE daylight
27 Oct - 16:40:32 10° W 16:44:37 28° SSW 16:48:42 10° SSE daylight
27 Oct - 18:25:43 10° SW 18:28:04 13° S 18:30:25 10° SSE daylight
27 Oct - 20:08:48 10° SSW 20:11:50 17° SSE 20:14:51 10° SE daylight
27 Oct - 21:50:19 10° SW 21:54:53 50° SSE 21:59:24 10° ENE daylight
27 Oct - 23:33:02 10° WSW 23:36:51 25° NW 23:40:38 10° N daylight
